This is the latest recevied weather packets stored in our database for station/object HK6LRQ-21. If no packets are shown the sender has not sent any weather packets the latest 10 day(s).
| Time | Temp. | Humidity | Pressure | Rain* | Wind** | Luminosity | Snow |
|---|---|---|---|---|---|---|---|
| 1777838015 | 17.22° C | 92% | 1012 hPa | 0 mm | - | - | - |
| 1777836814 | 17.78° C | 92% | 1012 hPa | 0 mm | - | - | - |
| 1777835613 | 18.33° C | 92% | 1012 hPa | 0 mm | - | - | - |
| 1777834412 | 17.78° C | 92% | 1012 hPa | 0 mm | - | - | - |
| 1777833211 | 17.78° C | 92% | 1013 hPa | 0 mm | - | - | - |
| 1777832011 | 18.33° C | 92% | 1013 hPa | 0 mm | - | - | - |
| 1777830810 | 17.78° C | 92% | 1014 hPa | 0 mm | - | - | - |
| 1777829609 | 17.78° C | 92% | 1014 hPa | 0 mm | - | - | - |
| 1777828408 | 17.78° C | 92% | 1015 hPa | 0 mm | - | - | - |
| 1777827207 | 17.78° C | 93% | 1015 hPa | 0 mm | - | - | - |
| 1777826006 | 17.78° C | 93% | 1015 hPa | 0 mm | - | - | - |
| 1777824805 | 17.22° C | 94% | 1016 hPa | 0 mm | - | - | - |
| 1777823604 | 18.33° C | 94% | 1016 hPa | 0 mm | - | - | - |
| 1777822404 | 16.67° C | 95% | 1016 hPa | 0 mm | - | - | - |
| 1777821203 | 17.78° C | 95% | 1017 hPa | 0 mm | - | - | - |
| 1777820002 | 15.56° C | 10% | - | 0 mm | - | - | - |
| 1777818801 | 16.11° C | 87% | 1017 hPa | 0 mm | - | - | - |
| 1777817600 | 14.44° C | 90% | 1017 hPa | 0 mm | - | - | - |
| 1777816399 | 16.11° C | 88% | 1017 hPa | 0 mm | - | - | - |
| 1777815198 | 13.33° C | 94% | 1017 hPa | 0 mm | - | - | - |
| 1777813997 | 13.33° C | 94% | 1017 hPa | 0 mm | - | - | - |
| 1777812796 | 13.33° C | 94% | 1017 hPa | 0 mm | - | - | - |
| 1777811596 | 13.33° C | 94% | 1017 hPa | 0 mm | - | - | - |
| 1777810395 | 12.78° C | 94% | 1017 hPa | 0 mm | - | - | - |
| 1777809194 | 13.33° C | 94% | 1017 hPa | 0 mm | - | - | - |
* Rain latest hour (hover to see other rain measurements)
** Current wind speed in m/s (hover to see current wind gust speed)